Weather in Sedniv

Ukraine / Chernihiv Region     51°38′35″N   31°34′07″E
temp.,
°C
wind,
m/s
gust,
m/s
humid.,
%
clouds,
%
prec.,
mm/h
press.,
hPa
HPBL,
m
8 august, mon
mon800:00+16n499699 0.0 1020338
03:00+14n379863 0.0 1020251
06:00+15n3695100 0.0 1020357
09:00+18n4584100 0.0 1021547
12:00+21n347178 0.0 1021769
15:00+24n335733 0.1 10201236
18:00+23n456143 0.0 1020892
21:00+17nne368480 0.0 1021115
9 august, tue
tue900:00+17n378575 0.0 1021178
03:00+15n3787100 0.0 1021176
06:00+14nnw3780100 0.0 1021172
09:00+18n4666100 0.0 1022368
12:00+23n4551100 0.0 10211338
15:00+23n4546100 0.0 10211579
18:00+21n3754100 0.0 1021258
21:00+19nne3959100 0.0 1021241
10 august, wed
wed1000:00+18n41061100 0.0 1021313
03:00+16n4967100 0.0 1021217
06:00+15n377595 0.0 1021187
09:00+19nne5963100 0.0 1021555
12:00+22nne684896 0.0 10211403
15:00+20nne2560100 0.0 1020174
18:00+21nne496296 0.0 1021488
21:00+20ne51165100 0.0 1020574
11 august, thu
thu1100:00+17nne41079100 0.0 1021285
03:00+16ne5127999 0.0 1021359
06:00+16ne51374100 0.0 1022397
09:00+19ne6115988 0.0 1022587
12:00+24ene79465 0.0 10221010
15:00+26ene68426 0.0 10221286
18:00+25ne68475 0.0 10221073
21:00+19ne411613 0.0 1023255
12 august, fri
fri1200:00+16ne410690 0.0 1024183
03:00+15ne410680 0.0 1024178
06:00+14ne410750 0.0 1024195
09:00+20ne59560 0.0 1024429
12:00+26ne56380 0.0 10241063
15:00+28ne56330 0.0 10221436
18:00+26ne46420 0.0 10221160
21:00+20ne4106335 0.0 1022179